Location: Beuvrequen
(50.8014°N, 1.6652°E)
Time: 09:23:07
(UTC+00:00)

Cosmos 1844 - Pass Details

Date: 05 June 2022
Orbit: 821 x 869 km, 70.9° (Epoch: 02 July)

Event Time Altitude Azimuth Distance (km) Brightness Sun altitude
Rises 22:04:21 0° 320° (NW) 3,466 8.6 -12.8°
Reaches altitude 10° 22:07:31 10° 303° (WNW) 2,522 7.1 -13.0°
Maximum altitude 22:11:25 19° 261° (W) 1,955 5.8 -13.3°
Drops below altitude 10° 22:15:17 10° 218° (SW) 2,500 5.9 -13.5°
Enters shadow 22:16:58 - 208° (SSW) 2,966 6.2 -13.6°
